Portsmouth, NH

8:57 AM EDT on July 23, 2017 (GMT -0400)
Pease International Tradeport

Weather History for KPSM - June, 2013

Change the Weather History Date:

Friday, June 14, 2013

  Actual Average Record
Temperature  
Mean Temperature 63 °F -  
Max Temperature 75 °F 71 °F 93 °F (1988)
Min Temperature 52 °F 53 °F 38 °F (1979)
Degree Days  
Heating Degree Days 2    
Growing Degree Days 13 (Base 50)    
Moisture  
Dew Point 54 °F    
Average Humidity 79    
Maximum Humidity 100    
Minimum Humidity 39    
Precipitation  
Precipitation 0.40 in - - ()
Sea Level Pressure  
Sea Level Pressure 29.70 in    
Wind  
Wind Speed 5 mph (NNW)    
Max Wind Speed 8 mph    
Max Gust Speed -    
Visibility 8 miles    
Events Rain    
Averages and records for this station are not official NWS values.
T = Trace of Precipitation, MM = Missing Value Source: NWS Daily Summary

Daily Weather History Graph

Daily Weather History Graph

Search for Another Location

Airport or City:

Trip Planner

Search our weather history database for the weather conditions in past years. The results will help you decide how hot, cold, wet, or windy it might be!

Date:

Astronomy

Jun. 14, 2013 Rise Set
Actual Time 5:03 AM EDT 8:24 PM EDT
Civil Twilight 4:27 AM EDT 8:59 PM EDT
Nautical Twilight 3:41 AM EDT 9:45 PM EDT
Astronomical Twilight 2:45 AM EDT 10:42 PM EDT
Moon 10:42 AM EDT (6/14) 11:50 PM EDT (6/14)
Length of Visible Light 16h 31m
Length of Day
15h 20m
Waxing Crescent, 30% of the Moon is Illuminated
Jun 14
Waxing Crescent
Jun 16
First Quarter
Jun 23
Full
Jun 30
Last Quarter
Jul 8
New

Hourly Weather History & Observations

Time (EDT) Temp. Dew Point Humidity Pressure Visibility Wind Dir Wind Speed Gust Speed Precip Events Conditions
12:44 AM 55.4 °F 55.4 °F 100% 29.70 in 4.0 mi NE 5.8 mph - N/A Rain Light Rain
12:58 AM 55.2 °F 54.9 °F 99% 29.70 in 5.0 mi NNE 4.6 mph - 0.02 in Rain Light Rain
1:44 AM 55.4 °F 55.4 °F 100% 29.68 in 5.0 mi North 5.8 mph - N/A Rain Light Rain
1:58 AM 55.0 °F 54.9 °F 99% 29.70 in 4.0 mi NNE 4.6 mph - 0.03 in Rain Light Rain
2:13 AM 55.4 °F 55.4 °F 100% 29.68 in 3.0 mi NNE 4.6 mph - N/A Rain Light Rain
2:58 AM 54.9 °F 54.5 °F 99% 29.68 in 4.0 mi ENE 5.8 mph - 0.05 in Rain Light Rain
3:58 AM 54.3 °F 54.0 °F 99% 29.69 in 6.0 mi NE 8.1 mph - 0.10 in Rain Light Rain
4:13 AM 53.6 °F 53.6 °F 100% 29.68 in 6.0 mi NE 4.6 mph - N/A Rain Light Rain
4:58 AM 53.2 °F 52.7 °F 98% 29.70 in 6.0 mi NNE 5.8 mph - 0.11 in Rain Light Rain
5:58 AM 52.9 °F 52.3 °F 98% 29.70 in 7.0 mi Variable 3.5 mph - 0.05 in Rain Light Rain
6:58 AM 53.2 °F 52.5 °F 97% 29.71 in 7.0 mi NE 2.3 mph - 0.03 in Rain Light Rain
7:58 AM 54.1 °F 52.7 °F 95% 29.72 in 10.0 mi West 3.5 mph - 0.01 in   Overcast
8:58 AM 55.0 °F 53.6 °F 95% 29.72 in 10.0 mi West 3.5 mph - N/A   Overcast
9:58 AM 56.8 °F 53.2 °F 88% 29.72 in 10.0 mi West 3.5 mph - N/A   Overcast
10:58 AM 60.6 °F 54.7 °F 81% 29.72 in 10.0 mi NW 5.8 mph - N/A   Overcast
11:26 AM 62.6 °F 55.4 °F 77% 29.70 in 10.0 mi NW 4.6 mph - N/A   Mostly Cloudy
11:58 AM 64.4 °F 55.8 °F 73% 29.72 in 10.0 mi Variable 4.6 mph - N/A   Mostly Cloudy
12:58 PM 67.1 °F 53.1 °F 61% 29.72 in 10.0 mi Variable 3.5 mph - N/A   Mostly Cloudy
1:58 PM 69.3 °F 55.0 °F 60% 29.70 in 10.0 mi NNW 3.5 mph - N/A   Mostly Cloudy
2:58 PM 72.9 °F 55.0 °F 53% 29.70 in 10.0 mi Variable 3.5 mph - N/A   Mostly Cloudy
3:58 PM 74.5 °F 50.9 °F 43% 29.69 in 10.0 mi Variable 5.8 mph - N/A   Mostly Cloudy
4:58 PM 74.8 °F 48.4 °F 39% 29.68 in 10.0 mi NW 5.8 mph - N/A   Mostly Cloudy
5:58 PM 74.8 °F 50.0 °F 42% 29.68 in 10.0 mi West 3.5 mph - N/A   Scattered Clouds
6:58 PM 71.8 °F 50.4 °F 47% 29.69 in 10.0 mi WSW 2.3 mph - N/A   Partly Cloudy
7:58 PM 68.7 °F 53.8 °F 59% 29.69 in 10.0 mi SW 4.6 mph - N/A   Partly Cloudy
8:58 PM 64.9 °F 56.5 °F 74% 29.71 in 10.0 mi WSW 5.8 mph - N/A   Mostly Cloudy
9:58 PM 64.9 °F 54.9 °F 70% 29.73 in 10.0 mi NE 4.6 mph - N/A   Overcast
10:58 PM 64.4 °F 52.0 °F 64% 29.74 in 10.0 mi NNW 2.3 mph - N/A   Scattered Clouds
11:58 PM 62.8 °F 51.6 °F 67% 29.76 in 10.0 mi NW 4.6 mph - N/A   Partly Cloudy